My Meet Scores
Addison Prieto, Flipstar Gymnastics Academy - MyMeetScores.com
Top100 | Top Teams | Upcoming Meets | Completed Meets | Latest | Add Scores | Help| Support | Bookmark and Share

Addison Prieto, Flipstar Gymnastics Academy
Personal Bests
LevelVault BarsBeamFloorAA
39.3509.350 9.3509.47537.025
49.2759.450 9.6009.62536.775
Meet Scores
Date Meet Team Session Level Division Vault Bars Beam Floor AA
2020-02-14 Big Classic Flipstar Gymnastics Academy 4B 4 Child F 8.800 11T 8.850 27T 9.500 1 9.625 2 36.775 5
2020-02-07 IGI Chicago Style Meet Flipstar Gymnastics Academy 121 4 D 8.750 14 8.700 12 9.400 1 9.525 2T 36.375 9
2020-01-30 Circle of Stars Flipstar Gymnastics Academy D02 4 Sr B 9.275 1 8.525 9T 9.575 3 9.300 4 36.675 5
2020-01-24 King Arthur Invitational Flipstar Gymnastics Academy 1 4 Sr C 9.000 4 7.600 12 9.600 1 8.950 3 35.150 7
2019-12-13 Crossroads Classic Flipstar Gymnastics Academy 2 4 Jr B 9.150 3 9.050 3 9.000 9 9.300 3T 36.500 3
2019-12-07 Home for the Holidays 2019 Flipstar Gymnastics Academy 4 4 Sr B 8.800 7 9.450 5T 9.350 1 9.125 5 36.725 2
2019-11-08 Illinois Judges Cup Flipstar Gymnastics Academy G5 4 All Ages 8.700 9T 8.825 27 9.450 3T 9.375 3 36.350 5T
2019-03-01 2019 MEGA Spring Invite Flipstar Gymnastics Academy All 4 All Ages 7.900 127 8.100 104T 9.025 48T 9.075 40T 34.100 90T
2019-02-23 Kinetic Classic 2019 Flipstar Gymnastics Academy 1 4 Older 7.750 41 8.400 36 8.850 24T 9.050 12T 34.050 35
2019-02-08 Midwest Twisters Harley Meet Womens Flipstar Gymnastics Academy T09 4 10b 8.475 9 7.850 12 8.575 9 9.050 3T 33.950 9
2019-01-25 King Arthur Invitational Flipstar Gymnastics Academy 1 4 Sr B 8.200 10 8.250 12 8.800 7T 8.750 11T 34.000 9
2019-01-11 Circle of Stars Gymnastics Flipstar Gymnastics Academy C07 4 Junior C 8.325 6 8.025 9T 8.300 11 8.775 8 33.425 10T
2018-12-07 Horton Invite Flipstar Gymnastics Academy 2 4 Jr A 8.200 15T 8.250 13T 8.325 12 8.800 10T 33.575 13
2018-05-03 Illinois USA Gymnastics Level 3 State Championships Flipstar Gymnastics Academy 5 3 Sr A 9.350 20T 9.150 16T 9.150 12 9.375 12T 37.025 15T
2018-02-23 Kinetic Classic Flipstar Gymnastics Academy 4 3 Older 9.000 41T 9.225 37T 8.900 57T 9.350 35T 36.475 41
2018-02-16 Big Classic Flipstar Gymnastics Academy 6B 3 Child C 9.150 7 9.350 7 9.100 7 9.125 7 36.725 7T
2018-02-09 IGI Chicago Style Gymnastics Meet Flipstar Gymnastics Academy 42 3 631 LaSalle L3 D 8.900 13 9.175 2 9.350 7 9.475 6 36.900 3
2018-01-26 King Arthur Invitational Flipstar Gymnastics Academy 5 3 SR B 9.050 17 8.400 18 9.150 10 9.100 12T 35.700 15
2017-12-08 Horton Invite At IWU Shirk Center Flipstar Gymnastics Academy All 3 Jr B 8.700 17T 8.750 10T 8.550 9T 8.600 8 34.600 13
2017-11-17 SCGA Classic Flipstar Gymnastics Academy 1 3 JrC 8.700 12 8.450 11 7.950 14 8.050 13 33.150 13
2017-11-10 Illinois NAWGJ Judges Cup 2017 Flipstar Gymnastics Academy S6 3 All Ages 8.750 60 8.950 6 8.150 33T 8.700 42T 34.550 27
Get your scores on
a t-shirt, pin, or hoodie

www.lazysuits.com